EN

Hourly Weather Barreiras

Today, 28 January, Thursday

Time Temperature Precipitation Wind Pressure Humidity
00:00 +24°C° 0 mm 1 mps 718 mmHg 71%
01:00 +24°C° 0 mm 1 mps 718 mmHg 71%
02:00 +24°C° 0 mm 1 mps 718 mmHg 71%
03:00 +24°C° 0 mm 1 mps 717 mmHg 71%
04:00 +23°C° 0 mm 1 mps 717 mmHg 72%
05:00 +21°C° 0 mm 0 mps 718 mmHg 74%
06:00 +20°C° 0 mm 0 mps 718 mmHg 76%
07:00 +25°C° 0 mm 1 mps 719 mmHg 68%
08:00 +27°C° 0 mm 1 mps 719 mmHg 60%
09:00 +30°C° 0 mm 2 mps 720 mmHg 52%
10:00 +32°C° 0 mm 2 mps 720 mmHg 46%
11:00 +34°C° 0 mm 1 mps 719 mmHg 41%
12:00 +36°C° 0 mm 1 mps 719 mmHg 36%
13:00 +35°C° 0 mm 1 mps 718 mmHg 37%
14:00 +35°C° 0 mm 1 mps 718 mmHg 38%
15:00 +34°C° 0 mm 1 mps 717 mmHg 39%
16:00 +33°C° 0 mm 1 mps 717 mmHg 43%
17:00 +32°C° 0 mm 1 mps 716 mmHg 48%
18:00 +30°C° 0 mm 1 mps 716 mmHg 52%
19:00 +29°C° 0 mm 1 mps 717 mmHg 55%
20:00 +28°C° 0 mm 1 mps 717 mmHg 57%
21:00 +26°C° 0 mm 1 mps 717 mmHg 60%
22:00 +26°C° 0 mm 1 mps 717 mmHg 61%
23:00 +26°C° 0 mm 1 mps 717 mmHg 63%

Tomorrow, 29 January, Friday

Time Temperature Precipitation Wind Pressure Humidity
00:00 +25°C° 0 mm 1 mps 718 mmHg 64%
01:00 +23°C° 0 mm 0 mps 717 mmHg 65%
02:00 +23°C° 0 mm 0 mps 717 mmHg 65%
03:00 +22°C° 0 mm 0 mps 716 mmHg 66%
04:00 +22°C° 0 mm 0 mps 717 mmHg 65%
05:00 +23°C° 0 mm 0 mps 717 mmHg 65%
06:00 +23°C° 0 mm 0 mps 718 mmHg 64%
07:00 +26°C° 0 mm 1 mps 719 mmHg 60%
08:00 +28°C° 0 mm 1 mps 719 mmHg 56%
09:00 +30°C° 0 mm 2 mps 720 mmHg 51%
10:00 +31°C° 0 mm 2 mps 720 mmHg 48%
11:00 +32°C° 0 mm 2 mps 720 mmHg 45%
12:00 +35°C° 0 mm 3 mps 720 mmHg 42%
13:00 +35°C° 0 mm 2 mps 719 mmHg 41%
14:00 +35°C° 0 mm 2 mps 718 mmHg 40%
15:00 +34°C° 0 mm 1 mps 717 mmHg 38%
16:00 +33°C° 0 mm 1 mps 717 mmHg 44%
17:00 +31°C° 0 mm 1 mps 717 mmHg 49%
18:00 +30°C° 0 mm 1 mps 717 mmHg 54%
19:00 +29°C° 0 mm 1 mps 717 mmHg 57%
20:00 +27°C° 0 mm 1 mps 717 mmHg 59%
21:00 +24°C° 0 mm 0 mps 718 mmHg 61%
22:00 +24°C° 0 mm 0 mps 718 mmHg 62%
23:00 +23°C° 0 mm 0 mps 718 mmHg 63%

Day after tomorrow, 30 January, Saturday

Time Temperature Precipitation Wind Pressure Humidity
00:00 +23°C° 0 mm 0 mps 718 mmHg 64%
01:00 +25°C° 0 mm 1 mps 718 mmHg 64%
02:00 +25°C° 0 mm 1 mps 718 mmHg 64%
03:00 +25°C° 0 mm 1 mps 718 mmHg 64%
04:00 +25°C° 0 mm 1 mps 718 mmHg 64%
05:00 +25°C° 0 mm 1 mps 719 mmHg 65%
06:00 +24°C° 0 mm 1 mps 719 mmHg 66%
07:00 +26°C° 0 mm 1 mps 720 mmHg 62%
08:00 +27°C° 0 mm 2 mps 720 mmHg 59%
09:00 +28°C° 0 mm 2 mps 720 mmHg 56%
10:00 +31°C° 0 mm 2 mps 720 mmHg 48%
11:00 +34°C° 0 mm 2 mps 720 mmHg 41%
12:00 +37°C° 0 mm 2 mps 720 mmHg 34%
13:00 +37°C° 0 mm 2 mps 719 mmHg 33%
14:00 +37°C° 0 mm 3 mps 718 mmHg 32%
15:00 +37°C° 0 mm 3 mps 717 mmHg 31%
16:00 +35°C° 0 mm 2 mps 717 mmHg 35%
17:00 +34°C° 0 mm 2 mps 717 mmHg 39%
18:00 +32°C° 0 mm 1 mps 717 mmHg 44%
19:00 +30°C° 0 mm 1 mps 717 mmHg 45%
20:00 +29°C° 0 mm 1 mps 718 mmHg 47%
21:00 +28°C° 0 mm 1 mps 718 mmHg 49%
22:00 +27°C° 0 mm 1 mps 718 mmHg 50%
23:00 +27°C° 0 mm 1 mps 718 mmHg 51%

31 January, Sunday

Time Temperature Precipitation Wind Pressure Humidity
00:00 +26°C° 0 mm 1 mps 718 mmHg 52%
01:00 +26°C° 0 mm 1 mps 718 mmHg 52%
02:00 +26°C° 0 mm 1 mps 718 mmHg 52%
03:00 +26°C° 0 mm 1 mps 718 mmHg 53%
04:00 +26°C° 0 mm 1 mps 719 mmHg 56%
05:00 +25°C° 0 mm 1 mps 719 mmHg 59%
06:00 +22°C° 0 mm 0 mps 719 mmHg 62%
07:00 +27°C° 0 mm 1 mps 720 mmHg 57%
08:00 +29°C° 0 mm 1 mps 720 mmHg 52%
09:00 +31°C° 0 mm 1 mps 721 mmHg 47%
10:00 +34°C° 0 mm 2 mps 721 mmHg 42%
11:00 +36°C° 0 mm 2 mps 720 mmHg 38%
12:00 +37°C° 0 mm 2 mps 720 mmHg 33%
13:00 +37°C° 0 mm 2 mps 719 mmHg 34%
14:00 +36°C° 0 mm 2 mps 718 mmHg 34%
15:00 +36°C° 0 mm 2 mps 718 mmHg 35%
16:00 +34°C° 0 mm 2 mps 717 mmHg 40%
17:00 +32°C° 0 mm 1 mps 717 mmHg 44%
18:00 +31°C° 0 mm 1 mps 717 mmHg 48%
19:00 +30°C° 0 mm 1 mps 717 mmHg 51%
20:00 +27°C° 0 mm 0 mps 718 mmHg 53%
21:00 +25°C° 0 mm 0 mps 718 mmHg 56%
22:00 +25°C° 0 mm 0 mps 718 mmHg 57%
23:00 +27°C° 0 mm 1 mps 718 mmHg 59%

1 February, Monday

Time Temperature Precipitation Wind Pressure Humidity
00:00 +26°C° 0 mm 1 mps 718 mmHg 60%
01:00 +25°C° 0.4 mm 1 mps 718 mmHg 69%
02:00 +24°C° 0.4 mm 1 mps 718 mmHg 78%
03:00 +23°C° 0.4 mm 1 mps 717 mmHg 87%
04:00 +23°C° 0.3 mm 1 mps 718 mmHg 89%
05:00 +21°C° 0.3 mm 0 mps 718 mmHg 91%
06:00 +20°C° 0.3 mm 0 mps 718 mmHg 93%
07:00 +22°C° 0.4 mm 0 mps 719 mmHg 87%
08:00 +26°C° 0.4 mm 1 mps 720 mmHg 81%
09:00 +27°C° 0.4 mm 1 mps 720 mmHg 75%
10:00 +29°C° 1 mm 1 mps 720 mmHg 70%
11:00 +30°C° 1 mm 2 mps 719 mmHg 65%
12:00 +31°C° 1 mm 2 mps 719 mmHg 61%
13:00 +32°C° 0.2 mm 2 mps 718 mmHg 54%
14:00 +34°C° 0.2 mm 2 mps 718 mmHg 47%
15:00 +35°C° 0.2 mm 2 mps 717 mmHg 40%
16:00 +34°C° 0 mm 2 mps 717 mmHg 45%
17:00 +32°C° 0 mm 1 mps 717 mmHg 49%
18:00 +29°C° 0 mm 0 mps 717 mmHg 53%
19:00 +27°C° 0.1 mm 0 mps 717 mmHg 57%
20:00 +26°C° 0.1 mm 0 mps 717 mmHg 61%
21:00 +25°C° 0.1 mm 0 mps 718 mmHg 66%
22:00 +24°C° 0.6 mm 0 mps 718 mmHg 72%
23:00 +25°C° 0.6 mm 1 mps 718 mmHg 79%

2 February, Tuesday

Time Temperature Precipitation Wind Pressure Humidity
00:00 +24°C° 0.6 mm 1 mps 718 mmHg 86%
01:00 +24°C° 0.5 mm 1 mps 718 mmHg 88%
02:00 +23°C° 0.5 mm 1 mps 718 mmHg 90%
03:00 +23°C° 0.5 mm 1 mps 718 mmHg 92%
04:00 +23°C° 0.3 mm 1 mps 718 mmHg 93%
05:00 +23°C° 0.3 mm 1 mps 718 mmHg 94%
06:00 +23°C° 0.3 mm 1 mps 718 mmHg 95%
07:00 +23°C° 0.2 mm 1 mps 719 mmHg 92%
08:00 +24°C° 0.2 mm 1 mps 720 mmHg 89%
09:00 +25°C° 0.2 mm 2 mps 720 mmHg 87%
10:00 +26°C° 0.6 mm 2 mps 720 mmHg 84%
11:00 +26°C° 0.6 mm 2 mps 720 mmHg 82%
12:00 +27°C° 0.6 mm 2 mps 719 mmHg 80%
13:00 +29°C° 0.4 mm 1 mps 719 mmHg 72%
14:00 +30°C° 0.4 mm 1 mps 718 mmHg 64%
15:00 +32°C° 0.4 mm 1 mps 718 mmHg 55%
16:00 +31°C° 0.1 mm 1 mps 718 mmHg 59%
17:00 +30°C° 0.1 mm 1 mps 717 mmHg 62%
18:00 +29°C° 0.1 mm 1 mps 717 mmHg 66%
19:00 +28°C° 0.3 mm 1 mps 718 mmHg 72%
20:00 +26°C° 0.3 mm 1 mps 718 mmHg 77%
21:00 +25°C° 0.3 mm 1 mps 719 mmHg 83%
22:00 +25°C° 0.3 mm 1 mps 719 mmHg 86%
23:00 +22°C° 0.3 mm 0 mps 719 mmHg 88%
Show more

We Need Your Consent

Meteoprog and our Service Providers may store and access personal data such as cookies, device identifiers or other similar technologies on your device and process such data to personalise content and ads, as well as provide social media features and to analyse the traffic.

  • Store and/or access information on your device

    Cookies, device identifiers or other information can be stored or accessed on your device for the purposes indicated above.

  • Personalised ads and content, ad and content measurement, audience insights, and products development

    Ads and content can be personalised based on a profile. More data can be added to better personalise ads and content. Ad and content performance can be measured. Insights about the audience who saw the ads and content can be derived. Such data can be used to develop or improve user’s experience, systems and software.

By clicking ‘I Agree’ you will allow the use of indicated cookies, device identifiers, web beacons or other similar technologies. Your settings can be changed in the browser on your device.

For certain purposes, legitimate interests may be relied on, rather than consent. You can read more about this in our Privacy and Cookie Policy.